EW9688 Weather Reports


Display with metric or nautical units.
time (UTC)temp
F
wind
direction
speed
MPH
gust
MPH
rain 1hr
in
rain 24hr
in
rain mn
in
humidity
%
barometer
mb
20260902233820 81 321 5.0 8.0 0.00 0.04 0.00 32 1019.3
20260902232818 82 300 3.0 4.0 0.00 0.04 0.00 31 1019.4
20260902231818 81 314 4.0 6.0 0.00 0.04 0.00 32 1019.5
20260902230818 80 290 5.0 10.0 0.00 0.04 0.00 33 1019.6
20260902225917 0 284 6.0 11.0 0.00 0.04 0.00
20260902224817 0 268 4.0 10.0 0.00 0.04 0.00
20260902223819 81 264 2.0 4.0 0.00 0.04 0.00 30 1019.6
20260902222818 81 201 2.0 3.0 0.00 0.04 0.00 28 1019.5
20260902221819 82 33 3.0 4.0 0.00 0.04 0.00 29 1019.1
20260902220820 82 46 4.0 4.0 0.00 0.04 0.00 27 1019.0
20260902215820 83 80 3.0 5.0 0.00 0.04 0.00 27 1019.2
20260902214819 83 169 6.0 8.0 0.00 0.04 0.00 28 1019.3
20260902213839 83 114 2.0 3.0 0.00 0.04 0.00 28 1019.4
20260902212821 83 201 3.0 3.0 0.00 0.04 0.00 28 1019.5
20260902211818 0 177 5.0 8.0 0.00 0.04 0.00
20260902210819 83 79 5.0 6.0 0.00 0.04 0.00 27 1019.6
20260902205840 83 26 7.0 9.0 0.00 0.04 0.00 28 1019.8
20260902204820 0 34 5.0 8.0 0.00 0.04 0.00
20260902203819 0 30 5.0 8.0 0.00 0.04 0.00
20260902202820 0 41 6.0 11.0 0.00 0.04 0.00
20260902201841 83 33 6.0 7.0 0.00 0.04 0.00 28 1020.3
20260902200820 82 171 4.0 7.0 0.00 0.04 0.00 29 1020.5
20260902195836 0 110 4.0 8.0 0.00 0.04 0.00
20260902194816 0 74 4.0 7.0 0.00 0.04 0.00
20260902193842 82 253 2.0 4.0 0.00 0.04 0.00 29 1020.8
20260902192841 81 89 7.0 9.0 0.00 0.04 0.00 30 1020.9
20260902191822 0 16 5.0 6.0 0.00 0.04 0.00
20260902190837 0 174 7.0 9.0 0.00 0.04 0.00
20260902185818 0 143 4.0 5.0 0.00 0.04 0.00
20260902184838 0 187 5.0 6.0 0.00 0.04 0.00
20260902183818 81 92 4.0 5.0 0.00 0.04 0.00 30 1021.5
20260902182818 0 126 2.0 4.0 0.00 0.04 0.00
20260902181819 0 202 4.0 9.0 0.00 0.04 0.00
20260902180818 0 168 4.0 6.0 0.00 0.04 0.00
20260902175839 0 112 4.0 6.0 0.00 0.04 0.00
20260902174818 0 109 5.0 9.0 0.00 0.04 0.00
20260902173839 0 184 4.0 7.0 0.00 0.04 0.00
20260902172819 0 122 3.0 7.0 0.00 0.04 0.00
20260902171820 0 103 4.0 8.0 0.00 0.04 0.00
20260902170819 0 177 4.0 6.0 0.00 0.04 0.00
20260902165820 0 148 4.0 5.0 0.00 0.04 0.00
20260902164819 0 93 3.0 5.0 0.00 0.04 0.00
20260902163820 0 127 4.0 7.0 0.00 0.04 0.00
20260902162820 0 152 4.0 6.0 0.00 0.04 0.00
20260902161840 0 162 4.0 5.0 0.00 0.04 0.00
20260902160817 0 132 4.0 6.0 0.00 0.04 0.00
20260902155841 0 179 4.0 10.0 0.00 0.04 0.00
20260902154820 0 191 5.0 7.0 0.00 0.04 0.00
20260902153821 0 168 4.0 5.0 0.00 0.04 0.00
20260902152821 0 153 3.0 6.0 0.00 0.04 0.00
20260902151821 0 161 2.0 5.0 0.00 0.04 0.00
20260902150841 0 181 2.0 3.0 0.00 0.04 0.00
20260902145821 0 147 4.0 7.0 0.00 0.04 0.00
20260902144826 72 182 2.0 3.0 0.00 0.04 0.00 42 1022.5
20260902143828 72 119 2.0 2.0 0.00 0.04 0.00 39 1022.5
20260902142826 72 167 3.0 3.0 0.00 0.04 0.00 40 1022.5
20260902141827 71 162 3.0 3.0 0.00 0.04 0.00 41 1022.6
20260902140826 69 190 1.0 1.0 0.00 0.04 0.00 44 1022.6
20260902135907 68 183 2.0 2.0 0.00 0.04 0.00 43 1022.6
20260902134826 68 188 2.0 2.0 0.00 0.04 0.00 44 1022.7
20260902133827 68 264 1.0 1.0 0.00 0.04 0.00 39 1022.6
20260902132847 67 311 1.0 2.0 0.00 0.04 0.00 40 1022.5
20260902131827 66 282 2.0 4.0 0.00 0.04 0.00 40 1022.5
20260902130837 64 294 2.0 2.0 0.00 0.04 0.00 41 1022.4
20260902125827 63 290 2.0 3.0 0.00 0.04 0.00 45 1022.4
20260902124828 63 214 1.0 2.0 0.00 0.04 0.00 44 1022.3
20260902123828 62 244 2.0 3.0 0.00 0.04 0.00 45 1022.3
20260902122828 61 236 1.0 2.0 0.00 0.04 0.00 50 1022.3
20260902121828 60 278 1.0 1.0 0.00 0.04 0.00 50 1022.2
20260902120828 60 240 1.0 2.0 0.00 0.04 0.00 51 1022.2
20260902115916 61 317 1.0 2.0 0.00 0.04 0.00 50 1022.1
20260902114836 60 212 1.0 2.0 0.00 0.04 0.00 54 1022.0
20260902113837 60 262 1.0 1.0 0.00 0.04 0.00 59 1022.0
20260902112856 60 335 2.0 3.0 0.00 0.04 0.00 56 1022.0
20260902111836 61 357 1.0 1.0 0.00 0.04 0.00 54 1022.0
20260902110856 61 222 1.0 2.0 0.00 0.04 0.00 55 1021.9
20260902105843 62 294 1.0 2.0 0.00 0.04 0.00 54 1022.0
20260902104823 62 259 1.0 1.0 0.00 0.04 0.00 55 1022.0
20260902103829 62 237 1.0 1.0 0.00 0.04 0.00 53 1022.0
20260902102824 63 242 1.0 1.0 0.00 0.04 0.00 53 1021.9
20260902101824 65 310 1.0 1.0 0.00 0.04 0.00 51 1021.8
20260902100831 65 0.0 0.0 0.00 0.04 0.00 47 1021.8
20260902095817 65 260 0.0 0.0 0.00 0.04 0.00 48 1021.9
20260902094817 65 0.0 0.0 0.00 0.04 0.00 50 1021.9
20260902093817 66 209 0.0 0.0 0.00 0.04 0.00 48 1021.8
20260902092858 65 246 0.0 0.0 0.00 0.04 0.00 49 1022.0
20260902091818 66 339 1.0 2.0 0.00 0.04 0.00 48 1022.0
20260902090818 66 310 2.0 2.0 0.00 0.04 0.00 48 1021.9
20260902085838 65 198 0.0 0.0 0.00 0.04 0.00 51 1021.9
20260902084838 64 175 1.0 2.0 0.00 0.04 0.00 50 1021.8
20260902083845 63 168 2.0 3.0 0.00 0.04 0.00 51 1021.9
20260902082825 64 196 2.0 2.0 0.00 0.04 0.00 51 1021.9
20260902081826 65 182 1.0 1.0 0.00 0.04 0.00 51 1021.9
20260902080826 66 214 0.0 0.0 0.00 0.04 0.00 49 1021.8
20260902075826 66 49 0.0 1.0 0.00 0.04 0.00 46 1021.8
20260902074826 66 1 1.0 1.0 0.00 0.04 0.00 46 1021.7
20260902073827 66 20 2.0 3.0 0.00 0.04 0.00 47 1021.7
20260902072826 67 333 2.0 3.0 0.00 0.04 0.00 46 1021.8
20260902071839 67 5 3.0 4.0 0.00 0.04 0.00 45 1021.8
20260902070826 68 284 2.0 3.0 0.00 0.05 0.00 44 1021.8
20260902065847 68 321 2.0 2.0 0.00 0.06 0.00 44 1021.8
20260902064827 68 324 2.0 2.0 0.00 0.07 0.00 45 1021.8
20260902063828 67 307 2.0 4.0 0.00 0.07 0.00 44 1021.8
20260902062827 66 181 1.0 1.0 0.00 0.07 0.00 47 1021.7
20260902061821 66 313 1.0 1.0 0.00 0.07 0.00 47 1021.8
20260902060822 65 309 1.0 2.0 0.00 0.07 0.00 50 1021.9
20260902055822 65 218 2.0 3.0 0.00 0.07 0.07 51 1022.0
20260902054822 65 239 1.0 2.0 0.00 0.07 0.07 51 1022.0
20260902053842 65 287 1.0 3.0 0.00 0.07 0.07 52 1022.0
20260902052822 65 235 1.0 3.0 0.00 0.07 0.07 53 1022.0
20260902051822 65 249 1.0 2.0 0.00 0.07 0.07 53 1022.1
20260902050842 66 298 2.0 3.0 0.00 0.07 0.07 53 1022.1
20260902045823 67 32 2.0 3.0 0.00 0.07 0.07 54 1022.2
20260902044823 67 345 3.0 4.0 0.00 0.07 0.07 51 1022.2
20260902043823 67 299 1.0 2.0 0.00 0.07 0.07 51 1022.3
20260902042823 67 330 0.0 0.0 0.01 0.07 0.07 52 1022.3
20260902041823 66 314 1.0 3.0 0.01 0.07 0.07 56 1022.4
20260902040844 67 245 1.0 1.0 0.01 0.07 0.07 58 1022.4
20260902035824 67 294 1.0 2.0 0.01 0.07 0.07 57 1022.4
20260902034844 68 284 2.0 3.0 0.01 0.07 0.07 61 1022.4
20260902033844 69 326 3.0 4.0 0.01 0.06 0.06 57 1022.5
20260902032824 69 237 1.0 2.0 0.00 0.06 0.06 54 1022.5
20260902031844 70 279 1.0 2.0 0.00 0.06 0.06 52 1022.4
20260902030825 71 24 2.0 3.0 0.00 0.06 0.06 51 1022.3
20260902025832 71 9 3.0 4.0 0.00 0.06 0.06 47 1022.3
20260902024832 71 261 1.0 1.0 0.00 0.07 0.06 45 1022.2
20260902023832 71 223 1.0 1.0 0.00 0.09 0.06 48 1022.0
20260902022837 70 177 2.0 3.0 0.01 0.09 0.06 49 1021.8
20260902021833 71 206 1.0 2.0 0.01 0.10 0.06 47 1021.6
20260902020832 71 242 1.0 1.0 0.01 0.11 0.06 50 1021.6
20260902015918 72 186 2.0 2.0 0.01 0.11 0.06 49 1021.4
20260902014849 74 6 2.0 3.0 0.01 0.11 0.06 43 1021.3
20260902013824 74 10 8.0 10.0 0.02 0.11 0.06 41 1021.6
20260902012827 74 272 1.0 1.0 0.02 0.10 0.05 42 1021.6
20260902011817 74 357 3.0 4.0 0.02 0.10 0.05 38 1021.5
20260902010827 75 320 2.0 3.0 0.02 0.10 0.05 44 1021.6
20260902005828 76 334 2.0 2.0 0.02 0.10 0.05 43 1021.5
20260902004827 77 8 3.0 4.0 0.02 0.10 0.05 43 1021.4
20260902003828 78 321 1.0 1.0 0.00 0.09 0.03 33 1021.1
20260902002827 78 255 0.0 0.0 0.00 0.09 0.03 34 1021.2
20260902001827 79 163 1.0 1.0 0.00 0.09 0.03 33 1021.3
20260902000828 79 186 2.0 2.0 0.00 0.09 0.03 34 1021.2
20260901235834 79 153 1.0 2.0 0.00 0.09 0.03 33 1021.2
20260901234835 79 165 2.0 2.0 0.00 0.09 0.03 34 1021.1